Theta_e
348 348 348 345 342 343 346 346 351 352 353 354 351 349 350 351 346 350 348 349 350 350 349 348 344 343 339 339 340 338 334 330 332 337 341 341 340 340 338 339 338 336 334
347 348 348 349 349 347 347 347 350 353 352 353 354 351 349 350 348 347 348 349 352 350 349 348 347 346 344 343 342 339 327 330 332 333 342 343 341 339 339 338 336 334 332
347 349 349 352 356 356 354 355 350 353 354 351 351 351 350 347 347 343 345 348 351 352 352 351 349 347 344 344 343 337 331 330 332 332 336 342 341 340 339 337 334 332 332
350 354 356 356 358 357 356 355 356 353 355 355 350 352 351 349 346 346 346 346 347 349 349 348 350 349 346 343 344 342 332 330 332 331 332 340 341 341 339 337 333 332 331
354 355 357 358 359 358 357 357 357 357 356 355 356 355 353 351 348 345 346 346 348 349 349 349 349 350 346 346 345 344 335 330 328 329 331 329 339 340 338 336 330 331 331
357 357 359 359 357 357 361 358 358 360 358 357 357 359 358 356 354 351 348 348 349 350 351 350 348 348 350 347 348 346 344 335 328 328 324 326 329 337 337 334 331 328 329
354 357 357 349 338 337 338 354 357 359 358 358 358 358 358 359 359 357 355 354 354 354 354 353 350 348 350 350 350 348 346 343 331 325 326 322 328 330 334 333 331 328 324
356 355 354 347 338 336 333 337 355 351 355 351 343 346 347 355 358 358 356 355 357 356 356 355 355 353 350 349 350 349 347 346 340 325 321 328 328 328 328 331 332 330 329
357 356 350 342 338 336 335 344 341 343 338 339 335 334 333 353 355 356 355 354 354 354 358 357 357 356 355 353 351 349 347 346 343 335 321 316 327 332 331 334 331 330 329
354 346 337 335 334 332 333 342 344 341 336 340 345 351 358 358 359 359 358 360 358 357 356 356 356 357 355 353 352 351 348 347 345 342 329 328 328 319 328 334 331 330 328
341 338 338 336 337 345 346 344 340 329 326 325 324 325 323 328 344 357 359 359 359 358 357 356 353 352 353 354 351 350 349 348 345 338 334 335 335 324 322 330 332 331 329
347 347 349 350 346 343 337 331 330 328 325 325 325 326 326 334 344 340 353 357 358 358 356 356 354 353 351 350 350 350 351 348 343 335 337 338 334 325 322 325 330 330 329
342 336 339 345 347 337 336 339 335 333 328 332 336 336 336 333 333 333 333 339 352 356 354 353 354 355 355 354 352 352 347 347 343 338 338 337 333 324 321 325 330 329 325
340 333 331 330 345 342 339 336 334 328 331 339 340 341 338 335 332 331 327 333 347 347 351 352 353 351 351 349 347 346 345 343 342 340 337 333 331 324 323 320 326 326 323
340 338 332 338 345 342 341 333 329 329 330 338 342 340 339 334 333 333 332 328 335 347 347 349 347 348 347 344 344 342 343 342 338 336 333 330 327 324 321 319 323 323 323
338 336 336 339 336 329 329 328 328 330 335 331 328 334 333 333 334 334 332 332 327 335 345 347 345 346 345 345 345 343 341 340 336 332 331 329 325 324 318 316 317 317 316
335 335 335 330 328 329 328 327 326 326 325 324 324 327 332 328 329 335 333 331 326 329 337 345 345 344 344 343 342 340 339 339 337 333 331 329 324 321 318 318 319 319 320
334 334 328 330 327 327 327 325 323 326 326 326 326 326 329 333 333 335 334 333 327 322 324 339 337 339 340 340 341 339 338 338 334 332 330 328 325 321 322 320 321 322 322
330 330 333 329 330 330 324 324 326 325 324 322 323 325 324 329 330 335 336 334 332 326 324 328 339 339 341 340 341 340 338 336 334 331 329 327 323 318 322 320 319 321 323
321 322 321 330 329 327 326 325 324 320 322 325 325 325 327 331 330 335 336 335 333 326 326 325 333 337 339 339 338 337 336 336 333 330 329 327 325 320 318 316 318 324 322
320 321 320 327 326 325 323 322 320 322 322 323 324 323 324 329 334 333 335 335 334 334 330 326 327 337 339 337 335 334 334 333 332 329 327 326 324 321 318 315 319 319 317
319 318 322 324 324 323 322 324 324 323 324 324 324 323 324 325 329 329 330 332 334 333 332 330 328 332 336 338 335 333 333 332 332 330 327 323 321 321 318 316 316 315 320
323 323 322 322 323 323 323 323 322 323 323 323 324 325 326 326 325 325 326 330 332 332 332 331 328 334 335 336 335 333 332 332 332 331 327 322 318 316 314 314 313 317 321
323 323 323 323 323 323 324 324 324 324 323 327 327 326 325 326 327 328 326 329 331 331 330 330 328 332 333 333 333 333 332 331 330 330 327 325 322 319 316 314 314 314 319
320 320 320 322 322 322 323 323 322 323 324 326 325 325 326 327 328 329 328 329 330 331 331 328 329 331 332 332 330 331 332 330 329 328 325 324 324 323 320 317 316 319 319
324 323 322 321 321 323 323 322 322 321 322 323 324 324 324 325 325 325 327 327 328 328 326 321 331 331 330 329 331 332 332 331 329 327 325 323 323 322 322 319 317 318 317
Wind_Speed
27 25 26 26 26 25 25 24 22 20 20 14 15 13 18 17 22 25 21 19 22 19 18 17 16 15 20 21 18 15 19 18 12 9 12 18 17 18 19 17 15 12 9
31 29 26 23 23 24 22 25 24 22 24 21 20 19 19 15 18 23 23 23 22 22 23 21 20 19 19 21 19 15 15 19 18 15 16 21 18 19 17 16 14 12 9
32 28 26 23 20 19 19 15 27 25 26 25 26 23 21 20 19 22 24 25 28 27 25 27 26 23 21 21 23 20 17 19 19 17 17 21 19 22 19 17 16 16 13
33 26 19 20 19 15 13 17 16 23 24 25 27 29 27 25 24 24 24 25 28 31 29 28 27 25 23 21 21 24 24 22 22 21 17 20 22 23 21 17 18 20 17
35 29 26 27 25 20 14 15 17 19 19 22 25 26 26 27 27 27 27 27 26 27 30 31 29 29 25 23 22 22 26 26 25 28 27 24 26 28 26 19 14 21 19
38 33 32 27 20 19 20 28 21 18 23 22 23 27 29 30 30 29 29 31 32 31 30 31 33 32 30 28 25 24 24 26 28 26 25 28 27 29 24 21 14 21 23
37 34 31 24 17 35 27 20 26 23 26 27 22 26 32 35 33 31 30 31 31 32 32 31 33 35 34 33 30 27 27 26 27 28 27 24 32 28 26 25 23 18 22
33 34 31 22 24 31 33 25 25 26 28 25 27 23 35 34 34 35 34 33 33 35 37 37 35 34 37 38 36 33 30 31 28 26 28 28 26 31 31 29 26 20 20
31 32 23 23 25 21 19 20 20 29 32 32 24 29 19 33 34 33 33 33 33 39 41 43 44 41 39 38 40 39 33 33 31 27 24 25 32 31 29 29 33 28 28
26 23 19 20 18 19 18 13 12 11 9 10 19 26 25 30 27 29 29 33 38 39 39 45 44 45 45 42 42 42 37 34 32 31 29 29 28 32 33 31 34 33 33
13 14 14 14 16 17 17 14 14 11 9 10 13 17 19 21 21 24 27 30 33 34 37 38 39 46 47 48 43 40 40 32 30 32 28 27 27 35 35 32 33 34 32
8 9 11 16 20 21 20 19 17 14 14 15 18 20 20 18 18 20 22 27 27 29 33 36 37 36 37 36 38 41 40 34 31 33 30 29 29 32 38 35 33 31 28
28 24 14 21 21 21 21 20 19 19 20 19 18 17 17 18 21 23 24 25 27 29 31 34 35 33 30 27 33 41 35 33 33 31 30 29 28 29 30 30 29 27 26
32 28 33 35 34 26 24 24 24 22 20 19 20 22 22 22 25 21 20 19 21 26 25 26 26 24 24 23 19 22 29 32 32 33 31 27 26 29 28 28 32 32 32
38 42 40 35 36 31 28 26 27 24 20 21 24 24 25 29 30 26 23 21 19 21 18 21 26 27 24 23 25 25 28 30 32 31 29 28 29 27 24 25 30 29 34
27 30 34 34 33 30 25 26 27 25 22 23 24 25 28 31 33 30 26 23 21 24 24 22 25 31 32 31 30 28 28 30 29 30 31 31 32 31 27 28 29 30 32
32 32 33 32 33 28 26 26 27 30 28 28 29 25 23 26 27 31 27 22 23 23 26 23 24 29 33 33 31 31 32 34 29 34 35 34 33 31 30 30 31 32 30
38 40 37 38 37 32 28 28 23 21 24 28 29 28 26 23 27 32 28 23 22 23 25 25 28 30 31 32 35 34 33 33 31 36 38 38 38 36 33 38 33 32 29
30 27 45 43 36 34 25 23 23 26 27 32 29 26 26 24 29 28 28 26 23 23 23 26 31 31 33 33 34 33 33 35 32 36 39 42 43 44 41 36 33 35 36
35 39 48 37 30 29 24 26 25 24 22 24 26 24 22 25 27 26 28 24 23 22 21 23 29 31 33 33 32 31 30 32 33 37 41 43 48 50 50 48 43 39 37
36 26 13 16 24 22 22 20 19 20 22 25 27 27 25 24 20 23 26 26 28 26 24 23 26 30 31 34 35 34 30 31 33 35 37 40 45 49 51 48 46 44 37
15 12 12 7 12 15 15 15 17 21 24 26 27 26 27 26 22 23 26 27 27 26 26 25 26 28 28 30 34 38 37 36 35 36 37 41 43 46 48 51 49 44 43
9 9 12 20 20 18 19 22 26 26 29 32 30 28 28 27 26 26 27 29 30 31 27 27 26 25 26 27 28 32 41 39 38 38 39 40 43 45 48 51 49 46 43
18 19 20 24 23 24 25 25 25 27 27 27 29 30 35 28 27 26 27 29 29 26 26 23 21 22 24 26 27 28 33 37 41 41 42 39 40 44 47 48 47 53 48
26 25 24 28 27 26 24 26 27 28 26 26 30 30 27 26 27 22 25 27 27 23 24 24 26 23 23 22 23 27 28 32 40 44 44 42 40 41 38 42 46 47 45
16 17 23 27 27 29 29 31 31 30 29 29 32 32 29 31 30 32 25 22 23 23 25 26 25 22 23 24 22 24 27 29 33 40 42 42 42 40 35 39 45 48 41
Wind_Direction
223 226 229 232 236 234 233 231 221 221 229 230 226 244 227 233 226 223 219 217 220 227 230 235 234 221 223 230 236 241 230 226 231 213 217 227 221 223 226 227 239 251 261
223 223 227 235 241 243 237 232 225 224 227 236 229 242 239 232 230 229 224 221 222 226 234 239 243 237 233 232 237 237 226 216 225 221 197 208 214 224 240 240 243 241 237
220 220 228 228 229 241 242 231 224 223 226 230 242 243 246 243 237 234 234 229 229 232 234 237 248 250 242 233 231 233 226 223 228 228 206 207 211 214 220 234 243 238 232
214 204 204 217 219 230 249 242 232 230 229 231 237 245 248 247 242 239 235 234 234 238 242 247 244 251 247 235 231 227 226 225 225 229 211 211 216 221 228 236 235 231 236
207 197 191 199 212 217 229 242 237 236 244 242 241 246 249 247 247 243 242 244 243 240 242 247 249 251 251 243 238 233 226 231 227 226 228 219 218 217 222 239 241 225 226
195 188 184 185 181 201 202 226 225 232 239 240 249 253 256 256 255 251 249 248 248 247 246 246 247 247 249 252 247 238 235 233 235 230 225 228 222 225 230 231 238 206 215
196 192 177 182 240 240 235 229 232 217 219 221 235 255 254 256 258 258 256 254 253 253 253 251 249 250 248 248 249 247 238 236 234 237 234 228 226 233 234 229 229 231 223
202 207 207 211 229 234 231 247 233 240 238 232 246 272 288 258 256 258 256 251 250 255 256 258 258 255 253 251 247 246 240 235 233 227 226 233 231 233 243 245 242 238 220
214 214 221 239 243 234 229 238 245 246 253 252 253 223 237 266 263 261 262 259 252 251 253 258 259 259 258 255 252 253 246 241 236 232 231 227 232 235 240 235 226 214 214
229 252 245 229 237 227 236 235 218 221 228 230 244 256 267 266 265 265 263 261 257 254 253 253 255 255 258 253 253 254 249 237 235 234 225 234 244 242 239 231 228 218 218
250 240 225 210 198 207 211 210 215 225 247 265 264 264 266 267 268 267 266 262 260 261 261 261 257 256 254 259 264 266 266 250 241 226 234 246 254 244 236 229 226 232 229
241 222 231 223 209 210 217 225 232 240 255 264 268 270 272 273 278 270 266 265 266 266 267 268 267 262 258 258 262 262 256 240 237 226 239 257 250 240 236 234 228 228 232
215 218 234 263 248 227 221 235 241 252 262 273 270 274 286 280 285 288 281 273 264 264 269 270 267 267 264 263 257 259 237 239 241 241 257 261 251 239 238 223 221 231 232
224 237 225 242 249 240 239 238 249 257 263 261 262 272 285 288 298 304 299 284 275 273 276 265 259 259 247 251 240 244 245 245 244 245 258 252 246 237 231 228 223 221 222
240 259 236 238 245 243 243 249 253 256 261 261 268 269 271 282 290 291 300 295 283 280 267 261 263 255 244 246 240 239 242 243 246 248 237 238 236 224 221 219 219 227 229
241 234 231 237 245 246 244 253 258 255 253 252 257 265 271 277 279 276 281 285 278 269 274 251 250 253 254 250 242 241 245 249 249 239 234 226 220 221 225 215 209 214 219
236 233 232 239 242 234 241 246 251 248 258 264 269 271 279 277 271 264 268 273 269 265 262 255 259 255 254 252 249 250 251 254 251 239 231 222 216 219 209 209 212 216 220
262 244 246 245 238 232 235 242 248 254 258 260 261 266 271 276 280 263 255 259 263 267 266 248 255 259 259 257 252 252 252 252 243 235 228 222 216 210 211 212 210 220 227
264 295 244 237 231 231 232 240 244 252 266 273 279 284 277 280 277 256 246 255 267 272 266 256 255 260 258 259 257 256 254 251 246 234 229 223 216 213 210 207 213 223 217
299 291 286 267 238 225 233 239 244 260 265 272 277 291 292 284 277 261 247 258 270 273 281 268 260 262 258 261 261 256 249 247 244 235 231 228 224 220 222 229 219 221 225
289 270 265 286 235 237 246 248 246 255 264 269 273 280 284 284 279 265 261 261 264 266 280 281 271 259 263 258 257 253 246 243 243 241 237 230 225 224 222 222 222 225 227
279 242 183 266 261 255 250 251 257 266 274 275 275 282 282 281 277 282 278 273 269 266 276 275 273 263 255 256 252 247 246 245 244 245 240 233 228 225 224 222 223 224 226
265 248 246 258 252 257 263 259 264 266 268 272 276 275 282 282 279 275 277 275 272 271 265 275 275 267 259 256 255 248 245 246 246 248 244 236 231 227 225 225 223 222 225
297 277 269 266 264 263 267 265 269 271 273 269 266 273 276 283 287 286 275 268 268 265 266 269 274 270 268 260 254 252 247 244 245 246 246 244 238 234 229 230 229 219 225
297 289 277 267 266 260 258 264 269 271 275 267 266 275 276 273 274 286 278 270 265 262 267 280 278 270 273 269 257 247 251 247 242 243 242 244 243 242 234 227 225 223 228
353 315 279 262 260 260 262 263 265 269 271 269 270 276 279 284 284 276 287 269 261 261 268 285 276 278 277 267 254 248 247 249 247 244 242 240 240 239 235 228 227 224 226